Notices

What's New in latest Release from April 7th, 2021:

- Updated Glossary, including Speed of Maximum Gust, and Total Hourly Precipitation

- Updated national and regional climate services offices contacts and prices information

- Addition of station inventory lists for 1981-2010, 1971-2000, and 1961-1990 Normals.

If you haven't already, please take our survey and provide feedback about our website: https://eccc.sondage-survey.ca/f/LanguageSelection.aspx?s=442ca660-fcf1-47c0-95a9-59707d6fd709

Hourly Data Report for November 09, 2006

TORONTO CITY
ONTARIO

43°40'00.000" N
79°24'00.000" W
112.50 m
6158355
71508
XTO

Download Data

Hourly Data (November 2006)
Hourly Data Report for November 9, 2006
TIME
LST
Temp Definition
°C
Dew Point Definition
°C
Rel Hum Definition
%
Precip. Amount Definition
mm

Wind Dir Definition
10's deg

Wind Spd Definition
km/h
Visibility Definition
km
Stn Press Definition
kPa
Hmdx Definition


Wind Chill Definition


Weather Definition


00:00 9.9 9.8 99   LegendMM LegendMM   98.95     LegendNANA
01:00 9.6 9.5 99   LegendMM LegendMM   98.94     LegendNANA
02:00 9.1 9.0 99   LegendMM LegendMM   98.92     LegendNANA
03:00 8.8 8.8 100   LegendMM LegendMM   98.89     LegendNANA
04:00 8.8 8.7 99   LegendMM LegendMM   98.89     LegendNANA
05:00 8.9 8.6 98   LegendMM LegendMM   98.95     LegendNANA
06:00 9.2 8.7 97   LegendMM LegendMM   98.91     LegendNANA
07:00 8.9 8.3 96   LegendMM LegendMM   98.86     LegendNANA
08:00 9.2 8.4 95   LegendMM LegendMM   98.91     LegendNANA
09:00 9.9 8.9 93   LegendMM LegendMM   98.83     LegendNANA
10:00 10.1 9.1 93   LegendMM LegendMM   98.76     LegendNANA
11:00 10.4 9.1 92   LegendMM LegendMM   98.77     LegendNANA
12:00 11.5 9.8 89   LegendMM LegendMM   98.68     LegendNANA
13:00 14.2 10.7 79   LegendMM LegendMM   98.66     LegendNANA
14:00 14.4 10.8 79   LegendMM LegendMM   98.61     LegendNANA
15:00 13.4 10.2 81   LegendMM LegendMM   98.68     LegendNANA
16:00 15.2 11.2 77   LegendMM LegendMM   98.78     LegendNANA
17:00 14.2 9.8 75   LegendMM LegendMM   98.91     LegendNANA
18:00 12.6 8.1 74   LegendMM LegendMM   99.06     LegendNANA
19:00 11.0 7.0 76   LegendMM LegendMM   99.19     LegendNANA
20:00 9.3 5.1 75   LegendMM LegendMM   99.33     LegendNANA
21:00 8.0 4.0 76   LegendMM LegendMM   99.46     LegendNANA
22:00 7.1 3.1 76   LegendMM LegendMM   99.56     LegendNANA
23:00 6.4 2.4 76   LegendMM LegendMM   99.64     LegendNANA

Notes on Data Quality.

Legend

  • E = Estimated
  • M = Missing
  • NA = Not Available*
  • [empty] = Indicates an unobserved value
Date modified: